Orbital Elements at Epoch 2459171.5 (2020-Nov-18.0) TDB
Reference: JPL 6 (heliocentric ecliptic J2000)
Element | Value | Uncertainty (1-sigma) | Units |
e | .721506002629712 | 0.00080049 | |
a | 2.526022086276171 | 0.0065528 | au |
q | .7034819882526855 | 0.00019718 | au |
i | .07306214503953376 | 0.00010252 | deg |
node | 265.4564977762313 | 0.020715 | deg |
peri | 76.17617825893956 | 0.020238 | deg |
M | 10.81748278958695 | 0.046405 | deg |
tp | 2459127.436615288564 (2020-Oct-04.93661529) | 0.017567 | TDB |
period | 1466.405706823654 4.01 | 5.706 0.01562 | d yr |
n | .2454982262581256 | 0.00095527 | deg/d |
Q | 4.348562184299657 | 0.011281 | au |
|
| | Orbit Determination Parameters
Additional Information
|